Location: Écuvilly
(49.6505°N, 2.9206°E)
Time: 17:18:24
(UTC+00:00)

Cosmos 676 Rocket - Pass Details

Date: 17 November 2025
Orbit: 750 x 779 km, 74.0° (Epoch: 10 December)

Event Time Altitude Azimuth Distance (km) Brightness Sun altitude
Rises 18:35:11 0° 199° (SSW) 3,249 7.5 -24.4°
Reaches altitude 10° 18:37:34 10° 199° (SSW) 2,325 6.7 -24.8°
Maximum altitude 18:42:51 84° 112° (ESE) 788 3.9 -25.7°
Enters shadow 18:43:15 76° 48° (NE) 804 3.9 -25.7°
